KB1JDX Weather Reports


Display with metric or nautical units.
time (UTC)temp
F
wind
direction
speed
MPH
gust
MPH
rain 1hr
in
rain 24hr
in
rain mn
in
humidity
%
barometer
mb
20200220080752 25 301 0.0 5.0 0.00 0.00 0.00 59 1028.2
20200220070752 25 301 0.0 5.0 0.00 0.00 0.00 57 1028.5
20200220060751 26 301 1.0 8.0 0.00 0.00 0.00 55 1028.2
20200220050751 27 295 8.0 11.0 0.00 0.00 0.00 54 1028.4
20200220040752 28 292 0.0 9.0 0.00 0.00 0.00 53 1027.9
20200220030752 29 301 7.0 10.0 0.00 0.00 0.00 51 1027.2
20200220020751 30 289 1.0 8.0 0.00 0.01 0.00 51 1027.0
20200220020553 30 312 7.0 8.0 0.00 0.01 0.00 52 1026.9
20200220014555 31 280 0.0 7.0 0.00 0.01 0.00 51 1026.7
20200220012554 31 310 4.0 8.0 0.00 0.01 0.00 52 1026.3
20200220010751 31 308 2.0 8.0 0.00 0.01 0.00 51 1026.1
20200220010553 31 305 0.0 8.0 0.00 0.01 0.00 52 1026.1
20200220004552 32 303 0.0 7.0 0.00 0.01 0.00 49 1025.7
20200220002552 33 300 1.0 8.0 0.00 0.02 0.00 48 1025.7
20200220000751 33 301 0.0 8.0 0.00 0.02 0.00 49 1025.5
20200220000555 33 298 0.0 8.0 0.00 0.02 0.00 48 1025.5
20200219234553 33 321 0.0 9.0 0.00 0.04 0.00 48 1025.2
20200219232554 34 299 5.0 1.0 0.00 0.05 0.00 49 1024.8
20200219230752 34 299 2.0 1.0 0.00 0.05 0.00 46 1024.3
20200219230554 34 298 0.0 1.0 0.00 0.05 0.00 46 1024.3
20200219224554 35 298 0.0 11.0 0.00 0.07 0.00 46 1024.0
20200219222554 36 309 1.0 11.0 0.00 0.09 0.00 43 1023.8
20200219220751 37 319 6.0 11.0 0.00 0.09 0.00 40 1023.4
20200219220554 37 319 1.0 11.0 0.00 0.09 0.00 40 1023.4
20200219214554 37 274 9.0 13.0 0.00 0.12 0.00 37 1023.1
20200219212553 38 319 10.0 18.0 0.00 0.14 0.00 39 1022.8
20200219210752 39 285 7.0 18.0 0.00 0.14 0.00 38 1022.7
20200219210553 39 302 1.0 18.0 0.00 0.14 0.00 38 1022.7
20200219204553 39 344 9.0 16.0 0.00 0.17 0.00 39 1022.4
20200219202553 40 317 6.0 16.0 0.00 0.18 0.00 38 1022.0
20200219200752 42 319 0.0 16.0 0.00 0.18 0.00 42 1021.7
20200219194552 41 300 6.0 21.0 0.00 0.19 0.00 42 1021.3
20200219192551 41 296 10.0 20.0 0.00 0.19 0.00 41 1021.0
20200219190751 41 12 8.0 20.0 0.00 0.19 0.00 38 1020.8
20200219190551 41 298 10.0 20.0 0.00 0.19 0.00 38 1020.8
20200219184552 42 299 8.0 20.0 0.00 0.19 0.00 42 1020.6
20200219182551 42 298 6.0 20.0 0.00 0.19 0.00 42 1020.6
20200219180749 42 308 8.0 20.0 0.00 0.19 0.00 46 1020.4
20200219180552 42 290 8.0 20.0 0.00 0.19 0.00 43 1020.4
20200219174553 42 304 13.0 18.0 0.00 0.19 0.00 44 1020.3
20200219172554 41 296 7.0 15.0 0.00 0.19 0.00 48 1020.3
20200219170751 43 306 13.0 15.0 0.00 0.19 0.00 45 1020.3
20200219170553 43 292 6.0 15.0 0.00 0.19 0.00 46 1020.3
20200219162553 42 304 0.0 20.0 0.00 0.19 0.00 48 1020.4
20200219160750 42 297 0.0 20.0 0.00 0.19 0.00 49 1020.4
20200219160553 42 298 8.0 20.0 0.00 0.19 0.00 48 1020.4
20200219154552 41 310 6.0 14.0 0.00 0.19 0.00 54 1020.5
20200219152552 41 323 6.0 12.0 0.00 0.19 0.00 53 1020.5
20200219150750 40 298 9.0 12.0 0.00 0.19 0.00 57 1020.5
20200219150553 40 293 9.0 12.0 0.00 0.19 0.00 58 1020.5
20200219144552 39 11 0.0 14.0 0.00 0.19 0.00 59 1020.4
20200219142551 40 312 6.0 12.0 0.00 0.19 0.00 61 1020.3
20200219140750 39 292 5.0 12.0 0.00 0.19 0.00 64 1020.1
20200219140551 39 289 4.0 12.0 0.00 0.19 0.00 64 1020.1
20200219134553 39 306 8.0 10.0 0.00 0.19 0.00 66 1019.9
20200219132552 38 307 5.0 8.0 0.00 0.19 0.00 67 1019.7
20200219130750 38 306 7.0 8.0 0.00 0.19 0.00 67 1019.3
20200219130552 38 306 5.0 8.0 0.00 0.19 0.00 67 1019.3
20200219124553 37 327 0.0 6.0 0.00 0.19 0.00 70 1019.0
20200219122553 37 327 0.0 9.0 0.00 0.19 0.00 69 1018.7
20200219120750 38 327 2.0 9.0 0.00 0.19 0.00 69 1018.3
20200219120553 38 328 0.0 9.0 0.00 0.19 0.00 68 1018.2
20200219114552 38 322 4.0 9.0 0.00 0.19 0.00 69 1018.2
20200219112553 38 311 0.0 10.0 0.00 0.19 0.00 71 1017.8
20200219110751 38 304 0.0 10.0 0.00 0.19 0.00 73 1017.6
20200219110552 38 304 0.0 10.0 0.00 0.19 0.00 73 1017.5
20200219104553 38 309 0.0 7.0 0.00 0.19 0.00 74 1017.1
20200219102553 38 307 0.0 9.0 0.00 0.19 0.00 75 1017.1
20200219100752 38 315 0.0 9.0 0.00 0.19 0.00 77 1017.0
20200219100554 38 315 0.0 9.0 0.00 0.19 0.00 77 1017.0
20200219094553 38 308 4.0 10.0 0.00 0.19 0.00 77 1016.6
20200219092553 38 313 5.0 12.0 0.00 0.19 0.00 78 1016.3
20200219090752 38 302 5.0 12.0 0.00 0.19 0.00 80 1015.9
20200219090553 38 319 1.0 12.0 0.00 0.19 0.00 81 1015.7